Location: San Martino di Castrozza
(46.2667°N, 11.8000°E)
Time: 15:50:47
(UTC+00:00)

USA 307 - Pass Details

Date: 23 April 2021
Orbit: 566 x 577 km, 54.0° (Epoch: 10 May)

Event Time Altitude Azimuth Distance (km) Brightness Sun altitude
Rises 03:15:15 0° 302° (WNW) 2,789 6.1 -9.8°
Reaches altitude 10° 03:17:31 10° 304° (NW) 1,890 5.3 -9.4°
Maximum altitude 03:21:50 78° 31° (NNE) 594 3.1 -8.8°
Drops below altitude 10° 03:26:07 10° 119° (ESE) 1,884 6.0 -8.1°
Sets 03:28:23 0° 120° (ESE) 2,780 6.9 -7.8°
